History for KIDP

Independence, KS

Daily Weekly Monthly
Daily Summary for Tuesday, March 19, 2019
  Actual: Average: Record:
Temperature
Mean Temperature: 55 °F / 13 °C - :  
Max Temperature: 71 °F / 22 °C 57 °F / 13 °C 87 °F / 30 °C (2017)
Min Temperature: 39 °F / 4 °C 35 °F / 1 °C 30 °F / -1 °C (2005)
Degree Days
Heating Degree Days: 10    
Growing Degree Days 5 (Base 50)    
Moisture
Dew Point 37 °F / 3 °C    
Average Humidity 56    
Maximum Humidity 95    
Minimum Humidity 27    
Precipitation
Precipitation 0.02 in / 0.51 cm - - ()
Sea Level Pressure
Sea Level Pressure 30.19 in / 1022 hPa   
Wind
Wind Speed 10 mph / 16 km/h (SSE)  
Max Wind Speed 25 mph / 40 km/h   
Max Gust Speed 33 mph / 53 km/h   
Visibility 10 miles / 16 kilometers   
Events Rain   
Averages and records for this station are not official NWS values.
Key: T is trace of precipitation, MM is missing value
Source: NWS Daily Summary
Seasonal Weather Averages

Graphs

Observations

History Graphs Observations

Obs Go Here...

Features

Weather Apps

WunderRadio

Weather Underground Apps
Check out our wide variety of mobile and setup applications.

Weather Underground Applications

Top of Page

© Copyright 2019
The Weather Company, LLC
Time(CDT)TemperatureDew PointHumidity Sea Level Pressure Visibility Wind DirectionWind SpeedGust SpeedPrecipitationEvents Conditions
12:15 AM 46.6 °F / 8.1 °C 31.5 °F / -0.3 °C 56% 30.29 in / 1025.6 hPa 10.0 miles / 16.1 kilometers East 9.2 mph / 14.8 km/h - N/A   Clear
12:35 AM 45.7 °F / 7.6 °C 31.3 °F / -0.4 °C 57% 30.28 in / 1025.3 hPa 10.0 miles / 16.1 kilometers East 8.1 mph / 13.0 km/h - N/A   Scattered Clouds
12:55 AM 46.2 °F / 7.9 °C 30.6 °F / -0.8 °C 54% 30.28 in / 1025.3 hPa 10.0 miles / 16.1 kilometers East 9.2 mph / 14.8 km/h - N/A   Scattered Clouds
1:15 AM 45.0 °F / 7.2 °C 30.4 °F / -0.9 °C 57% 30.27 in / 1024.9 hPa 10.0 miles / 16.1 kilometers East 6.9 mph / 11.1 km/h - N/A   Scattered Clouds
1:35 AM 44.4 °F / 6.9 °C 31.3 °F / -0.4 °C 60% 30.27 in / 1024.9 hPa 10.0 miles / 16.1 kilometers East 6.9 mph / 11.1 km/h - N/A   Scattered Clouds
1:55 AM 44.1 °F / 6.7 °C 31.3 °F / -0.4 °C 61% 30.26 in / 1024.6 hPa 10.0 miles / 16.1 kilometers East 8.1 mph / 13.0 km/h - N/A   Scattered Clouds
2:15 AM 43.7 °F / 6.5 °C 31.1 °F / -0.5 °C 61% 30.26 in / 1024.6 hPa 10.0 miles / 16.1 kilometers East 8.1 mph / 13.0 km/h - N/A   Clear
2:35 AM 43.3 °F / 6.3 °C 31.1 °F / -0.5 °C 62% 30.26 in / 1024.6 hPa 10.0 miles / 16.1 kilometers East 5.8 mph / 9.3 km/h - N/A   Clear
2:55 AM 42.8 °F / 6.0 °C 30.2 °F / -1.0 °C 61% 30.25 in / 1024.3 hPa 10.0 miles / 16.1 kilometers East 6.9 mph / 11.1 km/h - N/A   Clear
3:35 AM 41.9 °F / 5.5 °C 31.5 °F / -0.3 °C 66% 30.24 in / 1023.9 hPa 10.0 miles / 16.1 kilometers East 6.9 mph / 11.1 km/h - N/A   Scattered Clouds
3:55 AM 41.2 °F / 5.1 °C 31.1 °F / -0.5 °C 67% 30.23 in / 1023.6 hPa 10.0 miles / 16.1 kilometers East 6.9 mph / 11.1 km/h - N/A   Clear
4:15 AM 41.5 °F / 5.3 °C 31.3 °F / -0.4 °C 67% 30.22 in / 1023.2 hPa 10.0 miles / 16.1 kilometers East 8.1 mph / 13.0 km/h - N/A   Clear
4:35 AM 41.0 °F / 5.0 °C 30.7 °F / -0.7 °C 67% 30.22 in / 1023.2 hPa 10.0 miles / 16.1 kilometers East 5.8 mph / 9.3 km/h - N/A   Clear
4:55 AM 40.3 °F / 4.6 °C 30.4 °F / -0.9 °C 68% 30.22 in / 1023.2 hPa 10.0 miles / 16.1 kilometers East 4.6 mph / 7.4 km/h - N/A   Clear
5:15 AM 39.9 °F / 4.4 °C 30.7 °F / -0.7 °C 70% 30.22 in / 1023.2 hPa 10.0 miles / 16.1 kilometers East 5.8 mph / 9.3 km/h - N/A   Clear
5:35 AM 39.7 °F / 4.3 °C 30.2 °F / -1.0 °C 69% 30.23 in / 1023.6 hPa 10.0 miles / 16.1 kilometers East 5.8 mph / 9.3 km/h - N/A   Clear
5:55 AM 39.6 °F / 4.2 °C 30.4 °F / -0.9 °C 70% 30.23 in / 1023.6 hPa 10.0 miles / 16.1 kilometers East 4.6 mph / 7.4 km/h - N/A   Clear
6:15 AM 40.5 °F / 4.7 °C 31.6 °F / -0.2 °C 71% 30.23 in / 1023.6 hPa 10.0 miles / 16.1 kilometers East 5.8 mph / 9.3 km/h - N/A   Clear
6:55 AM 40.5 °F / 4.7 °C 32.0 °F / 0.0 °C 72% 30.25 in / 1024.3 hPa 10.0 miles / 16.1 kilometers East 4.6 mph / 7.4 km/h - N/A   Clear
7:15 AM 40.1 °F / 4.5 °C 32.0 °F / 0.0 °C 73% 30.25 in / 1024.3 hPa 10.0 miles / 16.1 kilometers East 4.6 mph / 7.4 km/h - N/A   Clear
7:35 AM 39.7 °F / 4.3 °C 32.2 °F / 0.1 °C 74% 30.25 in / 1024.3 hPa 10.0 miles / 16.1 kilometers ESE 5.8 mph / 9.3 km/h - N/A   Clear
7:55 AM 40.3 °F / 4.6 °C 32.4 °F / 0.2 °C 73% 30.25 in / 1024.3 hPa 10.0 miles / 16.1 kilometers ESE 6.9 mph / 11.1 km/h - N/A   Clear
8:15 AM 40.6 °F / 4.8 °C 32.7 °F / 0.4 °C 73% 30.25 in / 1024.3 hPa 10.0 miles / 16.1 kilometers ESE 5.8 mph / 9.3 km/h - N/A   Clear
8:35 AM 41.5 °F / 5.3 °C 33.4 °F / 0.8 °C 73% 30.26 in / 1024.6 hPa 10.0 miles / 16.1 kilometers ESE 5.8 mph / 9.3 km/h - N/A   Clear
8:55 AM 44.2 °F / 6.8 °C 35.4 °F / 1.9 °C 71% 30.25 in / 1024.3 hPa 10.0 miles / 16.1 kilometers SSE 8.1 mph / 13.0 km/h - N/A   Clear
9:15 AM 45.7 °F / 7.6 °C 35.2 °F / 1.8 °C 67% 30.25 in / 1024.3 hPa 10.0 miles / 16.1 kilometers SSE 9.2 mph / 14.8 km/h - N/A   Clear
9:35 AM 46.0 °F / 7.8 °C 35.6 °F / 2.0 °C 67% 30.25 in / 1024.3 hPa 10.0 miles / 16.1 kilometers SSE 11.5 mph / 18.5 km/h - N/A   Clear
9:55 AM 48.4 °F / 9.1 °C 36.7 °F / 2.6 °C 64% 30.25 in / 1024.3 hPa 10.0 miles / 16.1 kilometers South 9.2 mph / 14.8 km/h - N/A   Clear
10:15 AM 51.3 °F / 10.7 °C 38.1 °F / 3.4 °C 61% 30.25 in / 1024.3 hPa 10.0 miles / 16.1 kilometers South 13.8 mph / 22.2 km/h - N/A   Clear
10:35 AM 54.7 °F / 12.6 °C 38.8 °F / 3.8 °C 55% 30.24 in / 1023.9 hPa 10.0 miles / 16.1 kilometers South 18.4 mph / 29.6 km/h - N/A   Clear
10:55 AM 56.8 °F / 13.8 °C 38.7 °F / 3.7 °C 51% 30.24 in / 1023.9 hPa 10.0 miles / 16.1 kilometers South 19.6 mph / 31.5 km/h 24.2 mph / 38.9 km/h N/A   Scattered Clouds
11:15 AM 58.8 °F / 14.9 °C 39.2 °F / 4.0 °C 48% 30.23 in / 1023.6 hPa 10.0 miles / 16.1 kilometers South 19.6 mph / 31.5 km/h - N/A   Clear
11:35 AM 58.5 °F / 14.7 °C 38.3 °F / 3.5 °C 47% 30.23 in / 1023.6 hPa 10.0 miles / 16.1 kilometers SSW 17.3 mph / 27.8 km/h - N/A   Clear
11:55 AM 60.6 °F / 15.9 °C 39.7 °F / 4.3 °C 46% 30.23 in / 1023.6 hPa 10.0 miles / 16.1 kilometers South 18.4 mph / 29.6 km/h 24.2 mph / 38.9 km/h N/A   Scattered Clouds
12:15 PM 61.2 °F / 16.2 °C 39.2 °F / 4.0 °C 44% 30.22 in / 1023.2 hPa 10.0 miles / 16.1 kilometers SSW 18.4 mph / 29.6 km/h - N/A   Clear
12:35 PM 64.0 °F / 17.8 °C 38.8 °F / 3.8 °C 39% 30.21 in / 1022.9 hPa 10.0 miles / 16.1 kilometers South 21.9 mph / 35.2 km/h - N/A   Clear
1:15 PM 64.4 °F / 18.0 °C 39.0 °F / 3.9 °C 39% 30.20 in / 1022.6 hPa 10.0 miles / 16.1 kilometers South 20.7 mph / 33.3 km/h 24.2 mph / 38.9 km/h N/A   Clear
1:35 PM 65.8 °F / 18.8 °C 39.0 °F / 3.9 °C 37% 30.19 in / 1022.2 hPa 10.0 miles / 16.1 kilometers South 16.1 mph / 25.9 km/h - N/A   Clear
1:55 PM 67.6 °F / 19.8 °C 39.9 °F / 4.4 °C 36% 30.18 in / 1021.9 hPa 10.0 miles / 16.1 kilometers SSW 18.4 mph / 29.6 km/h 25.3 mph / 40.7 km/h N/A   Clear
2:15 PM 66.4 °F / 19.1 °C 38.3 °F / 3.5 °C 36% 30.16 in / 1021.2 hPa 10.0 miles / 16.1 kilometers South 17.3 mph / 27.8 km/h - N/A   Clear
2:35 PM 68.5 °F / 20.3 °C 36.5 °F / 2.5 °C 31% 30.15 in / 1020.9 hPa 10.0 miles / 16.1 kilometers SW 25.3 mph / 40.7 km/h 29.9 mph / 48.2 km/h N/A   Clear
2:55 PM 68.7 °F / 20.4 °C 38.5 °F / 3.6 °C 33% 30.13 in / 1020.2 hPa 10.0 miles / 16.1 kilometers South 18.4 mph / 29.6 km/h 33.4 mph / 53.7 km/h N/A   Clear
3:15 PM 69.6 °F / 20.9 °C 37.4 °F / 3.0 °C 31% 30.12 in / 1019.9 hPa 10.0 miles / 16.1 kilometers SSW 17.3 mph / 27.8 km/h 32.2 mph / 51.9 km/h N/A   Scattered Clouds
3:35 PM 69.6 °F / 20.9 °C 35.8 °F / 2.1 °C 29% 30.12 in / 1019.9 hPa 10.0 miles / 16.1 kilometers SSW 18.4 mph / 29.6 km/h 29.9 mph / 48.2 km/h N/A   Scattered Clouds
3:55 PM 70.7 °F / 21.5 °C 36.9 °F / 2.7 °C 29% 30.11 in / 1019.5 hPa 10.0 miles / 16.1 kilometers SSW 21.9 mph / 35.2 km/h 27.6 mph / 44.4 km/h N/A   Scattered Clouds
4:15 PM 71.1 °F / 21.7 °C 35.6 °F / 2.0 °C 27% 30.10 in / 1019.2 hPa 10.0 miles / 16.1 kilometers SSW 25.3 mph / 40.7 km/h 31.1 mph / 50.0 km/h N/A   Scattered Clouds
4:35 PM 71.8 °F / 22.1 °C 35.8 °F / 2.1 °C 27% 30.10 in / 1019.2 hPa 10.0 miles / 16.1 kilometers SSW 24.2 mph / 38.9 km/h 31.1 mph / 50.0 km/h N/A   Scattered Clouds
4:55 PM 69.3 °F / 20.7 °C 33.4 °F / 0.8 °C 27% 30.10 in / 1019.2 hPa 10.0 miles / 16.1 kilometers SSW 18.4 mph / 29.6 km/h - N/A   Scattered Clouds
5:15 PM 69.8 °F / 21.0 °C 34.2 °F / 1.2 °C 27% 30.09 in / 1018.8 hPa 10.0 miles / 16.1 kilometers SW 19.6 mph / 31.5 km/h 25.3 mph / 40.7 km/h N/A   Mostly Cloudy
5:35 PM 69.4 °F / 20.8 °C 34.5 °F / 1.4 °C 28% 30.08 in / 1018.5 hPa 10.0 miles / 16.1 kilometers SSW 20.7 mph / 33.3 km/h 25.3 mph / 40.7 km/h N/A   Mostly Cloudy
5:55 PM 68.4 °F / 20.2 °C 35.1 °F / 1.7 °C 29% 30.08 in / 1018.5 hPa 10.0 miles / 16.1 kilometers South 24.2 mph / 38.9 km/h - N/A   Mostly Cloudy
6:15 PM 67.6 °F / 19.8 °C 35.6 °F / 2.0 °C 31% 30.08 in / 1018.5 hPa 10.0 miles / 16.1 kilometers South 16.1 mph / 25.9 km/h - N/A   Mostly Cloudy
6:35 PM 66.6 °F / 19.2 °C 34.7 °F / 1.5 °C 31% 30.08 in / 1018.5 hPa 10.0 miles / 16.1 kilometers South 15.0 mph / 24.1 km/h - N/A   Overcast
6:55 PM 65.5 °F / 18.6 °C 35.2 °F / 1.8 °C 33% 30.08 in / 1018.5 hPa 10.0 miles / 16.1 kilometers South 11.5 mph / 18.5 km/h - N/A   Overcast
7:15 PM 64.4 °F / 18.0 °C 35.4 °F / 1.9 °C 34% 30.08 in / 1018.5 hPa 10.0 miles / 16.1 kilometers South 11.5 mph / 18.5 km/h - N/A   Overcast
7:35 PM 62.4 °F / 16.9 °C 35.6 °F / 2.0 °C 37% 30.08 in / 1018.5 hPa 10.0 miles / 16.1 kilometers South 10.4 mph / 16.7 km/h - N/A   Scattered Clouds
7:55 PM 60.3 °F / 15.7 °C 36.1 °F / 2.3 °C 41% 30.09 in / 1018.8 hPa 10.0 miles / 16.1 kilometers South 8.1 mph / 13.0 km/h - N/A   Scattered Clouds
8:15 PM 57.7 °F / 14.3 °C 41.5 °F / 5.3 °C 55% 30.12 in / 1019.9 hPa 10.0 miles / 16.1 kilometers NNW 19.6 mph / 31.5 km/h 26.5 mph / 42.6 km/h N/A   Overcast
8:35 PM 56.1 °F / 13.4 °C 43.3 °F / 6.3 °C 62% 30.14 in / 1020.5 hPa 10.0 miles / 16.1 kilometers NNW 15.0 mph / 24.1 km/h - N/A Rain Light Rain
8:55 PM 55.0 °F / 12.8 °C 44.1 °F / 6.7 °C 67% 30.15 in / 1020.9 hPa 10.0 miles / 16.1 kilometers NNW 12.7 mph / 20.4 km/h - N/A   Overcast
9:15 PM 54.5 °F / 12.5 °C 45.0 °F / 7.2 °C 70% 30.16 in / 1021.2 hPa 10.0 miles / 16.1 kilometers NNW 9.2 mph / 14.8 km/h - N/A   Light Drizzle
9:35 PM 52.5 °F / 11.4 °C 46.6 °F / 8.1 °C 80% 30.16 in / 1021.2 hPa 10.0 miles / 16.1 kilometers North 10.4 mph / 16.7 km/h - N/A Rain Light Rain
9:55 PM 52.0 °F / 11.1 °C 46.9 °F / 8.3 °C 83% 30.16 in / 1021.2 hPa 10.0 miles / 16.1 kilometers North 4.6 mph / 7.4 km/h - N/A Rain Light Rain
10:15 PM 50.9 °F / 10.5 °C 47.3 °F / 8.5 °C 87% 30.16 in / 1021.2 hPa 10.0 miles / 16.1 kilometers North 5.8 mph / 9.3 km/h - N/A Rain Light Rain
10:35 PM 51.1 °F / 10.6 °C 47.5 °F / 8.6 °C 87% 30.17 in / 1021.6 hPa 10.0 miles / 16.1 kilometers Calm Calm - N/A Rain Light Rain
10:55 PM 51.4 °F / 10.8 °C 47.7 °F / 8.7 °C 87% 30.17 in / 1021.6 hPa 7.0 miles / 11.3 kilometers SE 4.6 mph / 7.4 km/h - 0.01 in / 0.3 cm Rain Rain
11:15 PM 50.9 °F / 10.5 °C 47.8 °F / 8.8 °C 89% 30.17 in / 1021.6 hPa 10.0 miles / 16.1 kilometers Calm Calm - 0.01 in / 0.3 cm Rain Light Rain
11:35 PM 50.2 °F / 10.1 °C 47.8 °F / 8.8 °C 92% 30.17 in / 1021.6 hPa 10.0 miles / 16.1 kilometers Calm Calm - 0.01 in / 0.3 cm   Overcast
11:55 PM 49.3 °F / 9.6 °C 47.8 °F / 8.8 °C 95% 30.18 in / 1021.9 hPa 10.0 miles / 16.1 kilometers WSW 8.1 mph / 13.0 km/h - 0.01 in / 0.3 cm   Overcast